Location: Newark
(33.6333°S, 78.8500°W)
Time: 11:51:17
(UTC+00:00)

Tiros 1 despin weight - Pass Details

Date: 27 September 2019
Orbit: 594 x 643 km, 48.2° (Epoch: 14 October)

Event Time Altitude Azimuth Distance (km) Brightness Sun altitude
Rises 10:19:35 0° 243° (WSW) 2,945 - -8.8°
Exits shadow 10:21:38 - 251° (WSW) 2,219 ? -8.4°
Reaches altitude 10° 10:22:11 10° 255° (WSW) 2,037 ? -8.3°
Maximum altitude 10:26:09 27° 312° (NW) 1,222 ? -7.5°
Drops below altitude 10° 10:30:07 10° 10° (N) 2,029 ? -6.7°
Sets 10:32:42 0° 22° (NNE) 2,932 ? -6.1°
